STARLINK-31364, 59463

Orbit data source: Space-Track

STARLINK-31364, 59463 is a payload satellite owned by SpaceX/Seattle (US) in LEO that was launched on Wed, 10 Apr 2024 UTC via an FALCON 9 launch vehicle from the Air Force Eastern Test Range (AFETR). Payload-class satellites include a variety of spacecraft equipped with specific instruments for various scientific and technological missions. These include communications satellites like Starlink; space stations such as the ISS; scientific satellites like the Hubble; Earth observation satellites from companies like Planet Labs, Umbra, and HawkEye 360; GPS; miniature CubeSats for education and research; and military/defense satellites.

Loading next visibility...
Identifier
59463, 2024-068J
Orbit
LEO
Country
Flag of USUS
Related business
Manufacturer
SpaceX/Seattle
Mission
Operational Commercial Communications
Bus & Motor
STARLINK V2M, Unknown motor
Mass
730 kg wet, ~700 kg dry
Launch date (UTC)
2024-04-10 (2 years ago)
Launch vehicle
FALCON 9
Launch site
Air Force Eastern Test Range (AFETR)
Object type
Payload
Rocket body
Debris
Shape & HBR
Box + 2 Pan, 17.7 m
Radar Cross Section
33.884 m², Large (>1 m²)

Expand to show TLE details & history
Last TLE update: 2 days ago

TLE from 2 days ago
0 STARLINK-31364
1 59463U 24068J   26171.40352551  .00001377  00000-0  59571-4 0  9998
2 59463  43.0015 170.7979 0001490 269.4813  90.5868 15.27581623124271
Epoch: 2026-06-20T09:41Z
TLE epoch observation values (Epoch: 2026-06-20T09:41:04.604Z)
Latitude
0.00001°
Longitude
116.91008°
Altitude
482.83 km
Speed
7.626 km/s
True Right ascension
11h 23m 11s
True Declination
0° 00' 00"
Sunlit
Object was in daylight at epoch
Visualization orbit readout
Latitude
Unknown
Longitude
Unknown
Altitude
Unknown
Speed
Unknown
Apparent Right ascension
Unknown
Apparent Declination
Unknown
Sunlit
N/A
Visualization observer readout
Local Sidereal Time
21:25:26
Azimuth
Unknown
Elevation
Unknown
Doppler factor
Unknown
Orbital elements
Apogee altitude
486.012 km
Perigee altitude
483.967 km
Semi-major axis
6,863.126 km
Eccentricity
0.00015
Inclination
43.0015°
RAAN
170.7979°
Arg. of periapsis
269.4813°
True anomaly
90.60387°
Mean anomaly
90.5868°
Eccentric anomaly
90.59534°
Mean motion
3.81733 °/min
Orbital period
94.31 mins
BSTAR
0.000059571
Loading maneuver chart data...
Computing Atmospheric mass density...
Loading historical data...
Loading historical data...
Loading historical data...
Loading historical data...
Loading historical data...
Loading historical data...
Loading historical data...

Documentation

Showing up to 5 results
|